Year,Month,Day,Hour,Minute,Value (Times are PST for temperature in C)
2012,07,06,00,00,11.90
2012,07,06,00,01,11.90
2012,07,06,00,02,11.90
2012,07,06,00,03,11.90
2012,07,06,00,04,11.90
2012,07,06,00,05,11.90
2012,07,06,00,06,11.90
2012,07,06,00,07,11.90
2012,07,06,00,08,11.90
2012,07,06,00,09,11.90
2012,07,06,00,10,11.90
2012,07,06,00,11,11.80
2012,07,06,00,12,11.80
2012,07,06,00,13,11.80
2012,07,06,00,14,11.80
2012,07,06,00,15,11.80
2012,07,06,00,16,11.80
2012,07,06,00,17,11.80
2012,07,06,00,18,11.80
2012,07,06,00,19,11.80
2012,07,06,00,20,11.80
2012,07,06,00,21,11.80
2012,07,06,00,22,11.80
2012,07,06,00,23,11.70
2012,07,06,00,24,11.70
2012,07,06,00,25,11.70
2012,07,06,00,26,11.70
2012,07,06,00,27,11.70
2012,07,06,00,28,11.60
2012,07,06,00,29,11.60
2012,07,06,00,30,11.60
2012,07,06,00,31,11.60
2012,07,06,00,32,11.60
2012,07,06,00,33,11.60
2012,07,06,00,34,11.60
2012,07,06,00,35,11.60
2012,07,06,00,36,11.60
2012,07,06,00,37,11.60
2012,07,06,00,38,11.60
2012,07,06,00,39,11.60
2012,07,06,00,40,11.60
2012,07,06,00,41,11.60
2012,07,06,00,42,11.60
2012,07,06,00,43,11.60
2012,07,06,00,44,11.60
2012,07,06,00,45,11.50
2012,07,06,00,46,11.50
2012,07,06,00,47,11.50
2012,07,06,00,48,11.50
2012,07,06,00,49,11.40
2012,07,06,00,50,11.40
2012,07,06,00,51,11.40
2012,07,06,00,52,11.40
2012,07,06,00,53,11.40
2012,07,06,00,54,11.40
2012,07,06,00,55,11.40
2012,07,06,00,56,11.40
2012,07,06,00,57,11.30
2012,07,06,00,58,11.30
2012,07,06,00,59,11.30
2012,07,06,01,00,11.30
2012,07,06,01,01,11.30
2012,07,06,01,02,11.30
2012,07,06,01,03,11.30
2012,07,06,01,04,11.30
2012,07,06,01,05,11.30
2012,07,06,01,06,11.30
2012,07,06,01,07,11.30
2012,07,06,01,08,11.30
2012,07,06,01,09,11.30
2012,07,06,01,10,11.30
2012,07,06,01,11,11.30
2012,07,06,01,12,11.30
2012,07,06,01,13,11.30
2012,07,06,01,14,11.30
2012,07,06,01,15,11.30
2012,07,06,01,16,11.30
2012,07,06,01,17,11.30
2012,07,06,01,18,11.30
2012,07,06,01,19,11.30
2012,07,06,01,20,11.20
2012,07,06,01,21,11.20
2012,07,06,01,22,11.20
2012,07,06,01,23,11.20
2012,07,06,01,24,11.20
2012,07,06,01,25,11.20
2012,07,06,01,26,11.20
2012,07,06,01,27,11.20
2012,07,06,01,28,11.20
2012,07,06,01,29,11.10
2012,07,06,01,30,11.10
2012,07,06,01,31,11.10
2012,07,06,01,32,11.10
2012,07,06,01,33,11.10
2012,07,06,01,34,11.10
2012,07,06,01,35,11.10
2012,07,06,01,36,11.10
2012,07,06,01,37,11.00
2012,07,06,01,38,11.00
2012,07,06,01,39,11.00
2012,07,06,01,40,11.00
2012,07,06,01,41,11.00
2012,07,06,01,42,11.00
2012,07,06,01,43,10.90
2012,07,06,01,44,10.90
2012,07,06,01,45,10.90
2012,07,06,01,46,10.90
2012,07,06,01,47,10.90
2012,07,06,01,48,10.90
2012,07,06,01,49,10.90
2012,07,06,01,50,10.90
2012,07,06,01,51,10.90
2012,07,06,01,52,10.90
2012,07,06,01,53,10.90
2012,07,06,01,54,10.90
2012,07,06,01,55,10.90
2012,07,06,01,56,10.90
2012,07,06,01,57,10.90
2012,07,06,01,58,10.90
2012,07,06,01,59,10.90
2012,07,06,02,00,10.90
2012,07,06,02,01,10.90
2012,07,06,02,02,10.90
2012,07,06,02,03,10.80
2012,07,06,02,04,10.80
2012,07,06,02,05,10.80
2012,07,06,02,06,10.80
2012,07,06,02,07,10.80
2012,07,06,02,08,10.80
2012,07,06,02,09,10.80
2012,07,06,02,10,10.80
2012,07,06,02,11,10.80
2012,07,06,02,12,10.80
2012,07,06,02,13,10.80
2012,07,06,02,14,10.80
2012,07,06,02,15,10.80
2012,07,06,02,16,10.80
2012,07,06,02,17,10.80
2012,07,06,02,18,10.80
2012,07,06,02,19,10.80
2012,07,06,02,20,10.80
2012,07,06,02,21,10.80
2012,07,06,02,22,10.80
2012,07,06,02,23,10.70
2012,07,06,02,24,10.70
2012,07,06,02,25,10.70
2012,07,06,02,26,10.70
2012,07,06,02,27,10.70
2012,07,06,02,28,10.70
2012,07,06,02,29,10.60
2012,07,06,02,30,10.60
2012,07,06,02,31,10.60
2012,07,06,02,32,10.60
2012,07,06,02,33,10.60
2012,07,06,02,34,10.60
2012,07,06,02,35,10.60
2012,07,06,02,36,10.60
2012,07,06,02,37,10.60
2012,07,06,02,38,10.60
2012,07,06,02,39,10.60
2012,07,06,02,40,10.50
2012,07,06,02,41,10.50
2012,07,06,02,42,10.50
2012,07,06,02,43,10.50
2012,07,06,02,44,10.50
2012,07,06,02,45,10.50
2012,07,06,02,46,10.50
2012,07,06,02,47,10.40
2012,07,06,02,48,10.40
2012,07,06,02,49,10.50
2012,07,06,02,50,10.50
2012,07,06,02,51,10.40
2012,07,06,02,52,10.40
2012,07,06,02,53,10.40
2012,07,06,02,54,10.40
2012,07,06,02,55,10.40
2012,07,06,02,56,10.40
2012,07,06,02,57,10.40
2012,07,06,02,58,10.40
2012,07,06,02,59,10.40
2012,07,06,03,00,10.40
2012,07,06,03,01,10.40
2012,07,06,03,02,10.40
2012,07,06,03,03,10.40
2012,07,06,03,04,10.40
2012,07,06,03,05,10.40
2012,07,06,03,06,10.40
2012,07,06,03,07,10.40
2012,07,06,03,08,10.40
2012,07,06,03,09,10.30
2012,07,06,03,10,10.30
2012,07,06,03,11,10.30
2012,07,06,03,12,10.30
2012,07,06,03,13,10.30
2012,07,06,03,14,10.30
2012,07,06,03,15,10.30
2012,07,06,03,16,10.30
2012,07,06,03,17,10.30
2012,07,06,03,18,10.30
2012,07,06,03,19,10.30
2012,07,06,03,20,10.20
2012,07,06,03,21,10.20
2012,07,06,03,22,10.20
2012,07,06,03,23,10.20
2012,07,06,03,24,10.20
2012,07,06,03,25,10.20
2012,07,06,03,26,10.20
2012,07,06,03,27,10.20
2012,07,06,03,28,10.20
2012,07,06,03,29,10.20
2012,07,06,03,30,10.20
2012,07,06,03,31,10.20
2012,07,06,03,32,10.20
2012,07,06,03,33,10.20
2012,07,06,03,34,10.20
2012,07,06,03,35,10.20
2012,07,06,03,36,10.20
2012,07,06,03,37,10.20
2012,07,06,03,38,10.20
2012,07,06,03,39,10.20
2012,07,06,03,40,10.20
2012,07,06,03,41,10.20
2012,07,06,03,42,10.20
2012,07,06,03,43,10.20
2012,07,06,03,44,10.20
2012,07,06,03,45,10.20
2012,07,06,03,46,10.20
2012,07,06,03,47,10.20
2012,07,06,03,48,10.10
2012,07,06,03,49,10.10
2012,07,06,03,50,10.10
2012,07,06,03,51,10.10
2012,07,06,03,52,10.10
2012,07,06,03,53,10.10
2012,07,06,03,54,10.10
2012,07,06,03,55,10.10
2012,07,06,03,56,10.10
2012,07,06,03,57,10.10
2012,07,06,03,58,10.10
2012,07,06,03,59,10.00
2012,07,06,04,00,10.00
2012,07,06,04,01,10.00
2012,07,06,04,02,10.00
2012,07,06,04,03,10.00
2012,07,06,04,04,10.00
2012,07,06,04,05,10.00
2012,07,06,04,06,10.00
2012,07,06,04,07,10.00
2012,07,06,04,08,10.00
2012,07,06,04,09,10.00
2012,07,06,04,10,10.00
2012,07,06,04,11,10.00
2012,07,06,04,12,10.00
2012,07,06,04,13,9.90
2012,07,06,04,14,9.90
2012,07,06,04,15,9.90
2012,07,06,04,16,9.90
2012,07,06,04,17,9.90
2012,07,06,04,18,9.90
2012,07,06,04,19,9.90
2012,07,06,04,20,9.90
2012,07,06,04,21,9.90
2012,07,06,04,22,9.90
2012,07,06,04,23,9.90
2012,07,06,04,24,9.90
2012,07,06,04,25,9.90
2012,07,06,04,26,9.90
2012,07,06,04,27,9.90
2012,07,06,04,28,9.90
2012,07,06,04,29,9.90
2012,07,06,04,30,9.80
2012,07,06,04,31,9.80
2012,07,06,04,32,9.80
2012,07,06,04,33,9.80
2012,07,06,04,34,9.80
2012,07,06,04,35,9.80
2012,07,06,04,36,9.80
2012,07,06,04,37,9.80
2012,07,06,04,38,9.80
2012,07,06,04,39,9.80
2012,07,06,04,40,9.80
2012,07,06,04,41,9.80
2012,07,06,04,42,9.80
2012,07,06,04,43,9.80
2012,07,06,04,44,9.80
2012,07,06,04,45,9.80
2012,07,06,04,46,9.80
2012,07,06,04,47,9.80
2012,07,06,04,48,9.80
2012,07,06,04,49,9.80
2012,07,06,04,50,9.80
2012,07,06,04,51,9.80
2012,07,06,04,52,9.80
2012,07,06,04,53,9.80
2012,07,06,04,54,9.80
2012,07,06,04,55,9.70
2012,07,06,04,56,9.70
2012,07,06,04,57,9.70
2012,07,06,04,58,9.70
2012,07,06,04,59,9.70
2012,07,06,05,00,9.70
2012,07,06,05,01,9.70
2012,07,06,05,02,9.70
2012,07,06,05,03,9.70
2012,07,06,05,04,9.70
2012,07,06,05,05,9.70
2012,07,06,05,06,9.70
2012,07,06,05,07,9.70
2012,07,06,05,08,9.70
2012,07,06,05,09,9.60
2012,07,06,05,10,9.60
2012,07,06,05,11,9.60
2012,07,06,05,12,9.60
2012,07,06,05,13,9.60
2012,07,06,05,14,9.60
2012,07,06,05,15,9.60
2012,07,06,05,16,9.60
2012,07,06,05,17,9.60
2012,07,06,05,18,9.60
2012,07,06,05,19,9.60
2012,07,06,05,20,9.60
2012,07,06,05,21,9.60
2012,07,06,05,22,9.60
2012,07,06,05,23,9.60
2012,07,06,05,24,9.60
2012,07,06,05,25,9.60
2012,07,06,05,26,9.60
2012,07,06,05,27,9.60
2012,07,06,05,28,9.60
2012,07,06,05,29,9.60
2012,07,06,05,30,9.60
2012,07,06,05,31,9.60
2012,07,06,05,32,9.60
2012,07,06,05,33,9.60
2012,07,06,05,34,9.60
2012,07,06,05,35,9.60
2012,07,06,05,36,9.60
2012,07,06,05,37,9.60
2012,07,06,05,38,9.60
2012,07,06,05,39,9.60
2012,07,06,05,40,9.60
2012,07,06,05,41,9.60
2012,07,06,05,42,9.60
2012,07,06,05,43,9.60
2012,07,06,05,44,9.60
2012,07,06,05,45,9.60
2012,07,06,05,46,9.60
2012,07,06,05,47,9.60
2012,07,06,05,48,9.60
2012,07,06,05,49,9.60
2012,07,06,05,50,9.60
2012,07,06,05,51,9.60
2012,07,06,05,52,9.60
2012,07,06,05,53,9.60
2012,07,06,05,54,9.60
2012,07,06,05,55,9.60
2012,07,06,05,56,9.60
2012,07,06,05,57,9.60
2012,07,06,05,58,9.60
2012,07,06,05,59,9.60
2012,07,06,06,00,9.60
2012,07,06,06,01,9.60
2012,07,06,06,02,9.60
2012,07,06,06,03,9.60
2012,07,06,06,04,9.60
2012,07,06,06,05,9.60
2012,07,06,06,06,9.60
2012,07,06,06,07,9.60
2012,07,06,06,08,9.70
2012,07,06,06,09,9.70
2012,07,06,06,10,9.70
2012,07,06,06,11,9.70
2012,07,06,06,12,9.70
2012,07,06,06,13,9.80
2012,07,06,06,14,9.80
2012,07,06,06,15,9.80
2012,07,06,06,16,9.80
2012,07,06,06,17,9.80
2012,07,06,06,18,9.80
2012,07,06,06,19,9.80
2012,07,06,06,20,9.80
2012,07,06,06,21,9.80
2012,07,06,06,22,9.90
2012,07,06,06,23,9.90
2012,07,06,06,24,9.90
2012,07,06,06,25,10.00
2012,07,06,06,26,10.00
2012,07,06,06,27,10.00
2012,07,06,06,28,10.00
2012,07,06,06,29,10.10
2012,07,06,06,30,10.10
2012,07,06,06,31,10.10
2012,07,06,06,32,10.20
2012,07,06,06,33,10.20
2012,07,06,06,34,10.20
2012,07,06,06,35,10.30
2012,07,06,06,36,10.30
2012,07,06,06,37,10.30
2012,07,06,06,38,10.40
2012,07,06,06,39,10.50
2012,07,06,06,40,10.50
2012,07,06,06,41,10.60
2012,07,06,06,42,10.70
2012,07,06,06,43,10.80
2012,07,06,06,44,10.80
2012,07,06,06,45,10.80
2012,07,06,06,46,10.80
2012,07,06,06,47,10.90
2012,07,06,06,48,10.90
2012,07,06,06,49,10.90
2012,07,06,06,50,11.00
2012,07,06,06,51,11.10
2012,07,06,06,52,11.20
2012,07,06,06,53,11.20
2012,07,06,06,54,11.20
2012,07,06,06,55,11.20
2012,07,06,06,56,11.30
2012,07,06,06,57,11.30
2012,07,06,06,58,11.30
2012,07,06,06,59,11.40
2012,07,06,07,00,11.50
2012,07,06,07,01,11.60
2012,07,06,07,02,11.70
2012,07,06,07,03,11.70
2012,07,06,07,04,11.80
2012,07,06,07,05,11.90
2012,07,06,07,06,11.90
2012,07,06,07,07,12.00
2012,07,06,07,08,12.10
2012,07,06,07,09,12.20
2012,07,06,07,10,12.40
2012,07,06,07,11,12.50
2012,07,06,07,12,12.60
2012,07,06,07,13,12.70
2012,07,06,07,14,12.80
2012,07,06,07,15,12.90
2012,07,06,07,16,12.90
2012,07,06,07,17,13.00
2012,07,06,07,18,13.10
2012,07,06,07,19,13.20
2012,07,06,07,20,13.20
2012,07,06,07,21,13.30
2012,07,06,07,22,13.50
2012,07,06,07,23,13.60
2012,07,06,07,24,13.70
2012,07,06,07,25,13.80
2012,07,06,07,26,13.80
2012,07,06,07,27,13.90
2012,07,06,07,28,14.00
2012,07,06,07,29,14.10
2012,07,06,07,30,14.20
2012,07,06,07,31,14.20
2012,07,06,07,32,14.20
2012,07,06,07,33,14.20
2012,07,06,07,34,14.20
2012,07,06,07,35,14.20
2012,07,06,07,36,14.20
2012,07,06,07,37,14.20
2012,07,06,07,38,14.30
2012,07,06,07,39,14.30
2012,07,06,07,40,14.30
2012,07,06,07,41,14.40
2012,07,06,07,42,14.40
2012,07,06,07,43,14.50
2012,07,06,07,44,14.50
2012,07,06,07,45,14.50
2012,07,06,07,46,14.60
2012,07,06,07,47,14.60
2012,07,06,07,48,14.70
2012,07,06,07,49,14.80
2012,07,06,07,50,15.00
2012,07,06,07,51,15.00
2012,07,06,07,52,15.00
2012,07,06,07,53,15.20
2012,07,06,07,54,15.30
2012,07,06,07,55,15.30
2012,07,06,07,56,15.40
2012,07,06,07,57,15.40
2012,07,06,07,58,15.50
2012,07,06,07,59,15.60
2012,07,06,08,00,15.60
2012,07,06,08,01,15.70
2012,07,06,08,02,15.80
2012,07,06,08,03,15.80
2012,07,06,08,04,15.80
2012,07,06,08,05,15.80
2012,07,06,08,06,15.90
2012,07,06,08,07,16.00
2012,07,06,08,08,16.10
2012,07,06,08,09,16.20
2012,07,06,08,10,16.20
2012,07,06,08,11,16.30
2012,07,06,08,12,16.30
2012,07,06,08,13,16.30
2012,07,06,08,14,16.30
2012,07,06,08,15,16.30
2012,07,06,08,16,16.30
2012,07,06,08,17,16.40
2012,07,06,08,18,16.40
2012,07,06,08,19,16.40
2012,07,06,08,20,16.50
2012,07,06,08,21,16.60
2012,07,06,08,22,16.70
2012,07,06,08,23,16.80
2012,07,06,08,24,16.80
2012,07,06,08,25,16.90
2012,07,06,08,26,16.90
2012,07,06,08,27,16.90
2012,07,06,08,28,16.90
2012,07,06,08,29,17.00
2012,07,06,08,30,17.10
2012,07,06,08,31,17.10
2012,07,06,08,32,17.10
2012,07,06,08,33,17.10
2012,07,06,08,34,17.10
2012,07,06,08,35,17.10
2012,07,06,08,36,17.10
2012,07,06,08,37,17.20
2012,07,06,08,38,17.30
2012,07,06,08,39,17.30
2012,07,06,08,40,17.20
2012,07,06,08,41,17.20
2012,07,06,08,42,17.20
2012,07,06,08,43,17.10
2012,07,06,08,44,17.10
2012,07,06,08,45,17.10
2012,07,06,08,46,17.10
2012,07,06,08,47,17.20
2012,07,06,08,48,17.30
2012,07,06,08,49,17.40
2012,07,06,08,50,17.40
2012,07,06,08,51,17.50
2012,07,06,08,52,17.50
2012,07,06,08,53,17.60
2012,07,06,08,54,17.60
2012,07,06,08,55,17.60
2012,07,06,08,56,17.70
2012,07,06,08,57,17.70
2012,07,06,08,58,17.80
2012,07,06,08,59,17.80
2012,07,06,09,00,17.90
2012,07,06,09,01,18.00
2012,07,06,09,02,18.00
2012,07,06,09,03,17.90
2012,07,06,09,04,17.90
2012,07,06,09,05,18.00
2012,07,06,09,06,17.90
2012,07,06,09,07,17.90
2012,07,06,09,08,17.90
2012,07,06,09,09,18.00
2012,07,06,09,10,18.20
2012,07,06,09,11,18.30
2012,07,06,09,12,18.40
2012,07,06,09,13,18.50
2012,07,06,09,14,18.50
2012,07,06,09,15,18.50
2012,07,06,09,16,18.60
2012,07,06,09,17,18.60
2012,07,06,09,18,18.50
2012,07,06,09,19,18.40
2012,07,06,09,20,18.40
2012,07,06,09,21,18.30
2012,07,06,09,22,18.20
2012,07,06,09,23,18.20
2012,07,06,09,24,18.10
2012,07,06,09,25,18.00
2012,07,06,09,26,17.90
2012,07,06,09,27,17.80
2012,07,06,09,28,17.70
2012,07,06,09,29,17.60
2012,07,06,09,30,17.50
2012,07,06,09,31,17.40
2012,07,06,09,32,17.30
2012,07,06,09,33,17.30
2012,07,06,09,34,17.20
2012,07,06,09,35,17.10
2012,07,06,09,36,17.00
2012,07,06,09,37,16.80
2012,07,06,09,38,16.80
2012,07,06,09,39,16.80
2012,07,06,09,40,16.80
2012,07,06,09,41,16.80
2012,07,06,09,42,16.90
2012,07,06,09,43,16.90
2012,07,06,09,44,17.00
2012,07,06,09,45,17.10
2012,07,06,09,46,17.20
2012,07,06,09,47,17.30
2012,07,06,09,48,17.40
2012,07,06,09,49,17.50
2012,07,06,09,50,17.60
2012,07,06,09,51,17.80
2012,07,06,09,52,17.90
2012,07,06,09,53,17.80
2012,07,06,09,54,17.90
2012,07,06,09,55,18.00
2012,07,06,09,56,18.10
2012,07,06,09,57,18.20
2012,07,06,09,58,18.20
2012,07,06,09,59,18.20
2012,07,06,10,00,18.30
2012,07,06,10,01,18.30
2012,07,06,10,02,18.40
2012,07,06,10,03,18.50
2012,07,06,10,04,18.60
2012,07,06,10,05,18.60
2012,07,06,10,06,18.70
2012,07,06,10,07,18.70
2012,07,06,10,08,18.80
2012,07,06,10,09,18.80
2012,07,06,10,10,18.80
2012,07,06,10,11,18.80
2012,07,06,10,12,18.80
2012,07,06,10,13,18.90
2012,07,06,10,14,18.90
2012,07,06,10,15,18.80
2012,07,06,10,16,18.80
2012,07,06,10,17,18.80
2012,07,06,10,18,18.80
2012,07,06,10,19,18.90
2012,07,06,10,20,18.80
2012,07,06,10,21,18.90
2012,07,06,10,22,18.90
2012,07,06,10,23,19.00
2012,07,06,10,24,19.00
2012,07,06,10,25,19.00
2012,07,06,10,26,19.00
2012,07,06,10,27,18.90
2012,07,06,10,28,19.00
2012,07,06,10,29,19.00
2012,07,06,10,30,18.90
2012,07,06,10,31,18.90
2012,07,06,10,32,18.80
2012,07,06,10,33,18.80
2012,07,06,10,34,18.70
2012,07,06,10,35,18.70
2012,07,06,10,36,18.80
2012,07,06,10,37,18.90
2012,07,06,10,38,19.00
2012,07,06,10,39,19.10
2012,07,06,10,40,19.20
2012,07,06,10,41,19.30
2012,07,06,10,42,19.30
2012,07,06,10,43,19.20
2012,07,06,10,44,19.20
2012,07,06,10,45,19.10
2012,07,06,10,46,19.10
2012,07,06,10,47,19.00
2012,07,06,10,48,19.00
2012,07,06,10,49,19.00
2012,07,06,10,50,19.00
2012,07,06,10,51,19.00
2012,07,06,10,52,19.00
2012,07,06,10,53,18.90
2012,07,06,10,54,18.90
2012,07,06,10,55,18.90
2012,07,06,10,56,18.90
2012,07,06,10,57,18.90
2012,07,06,10,58,18.90
2012,07,06,10,59,18.90
2012,07,06,11,00,18.90
2012,07,06,11,01,18.90
2012,07,06,11,02,18.90
2012,07,06,11,03,18.90
2012,07,06,11,04,18.90
2012,07,06,11,05,18.90
2012,07,06,11,06,18.80
2012,07,06,11,07,18.90
2012,07,06,11,08,19.00
2012,07,06,11,09,19.00
2012,07,06,11,10,18.90
2012,07,06,11,11,18.80
2012,07,06,11,12,18.80
2012,07,06,11,13,18.80
2012,07,06,11,14,18.80
2012,07,06,11,15,18.70
2012,07,06,11,16,18.60
2012,07,06,11,17,18.50
2012,07,06,11,18,18.30
2012,07,06,11,19,18.10
2012,07,06,11,20,18.10
2012,07,06,11,21,18.00
2012,07,06,11,22,17.90
2012,07,06,11,23,17.80
2012,07,06,11,24,17.90
2012,07,06,11,25,17.90
2012,07,06,11,26,18.00
2012,07,06,11,27,18.10
2012,07,06,11,28,18.20
2012,07,06,11,29,18.20
2012,07,06,11,30,18.20
2012,07,06,11,31,18.20
2012,07,06,11,32,18.20
2012,07,06,11,33,18.20
2012,07,06,11,34,18.20
2012,07,06,11,35,18.20
2012,07,06,11,36,18.30
2012,07,06,11,37,18.40
2012,07,06,11,38,18.50
2012,07,06,11,39,18.60
2012,07,06,11,40,18.70
2012,07,06,11,41,18.90
2012,07,06,11,42,19.00
2012,07,06,11,43,19.10
2012,07,06,11,44,19.10
2012,07,06,11,45,19.20
2012,07,06,11,46,19.30
2012,07,06,11,47,19.40
2012,07,06,11,48,19.50
2012,07,06,11,49,19.50
2012,07,06,11,50,19.50
2012,07,06,11,51,19.50
2012,07,06,11,52,19.50
2012,07,06,11,53,19.50
2012,07,06,11,54,19.50
2012,07,06,11,55,19.40
2012,07,06,11,56,19.40
2012,07,06,11,57,19.50
2012,07,06,11,58,19.60
2012,07,06,11,59,19.70
2012,07,06,12,00,19.80
2012,07,06,12,01,19.80
2012,07,06,12,02,19.80
2012,07,06,12,03,19.80
2012,07,06,12,04,19.80
2012,07,06,12,05,19.80
2012,07,06,12,06,19.90
2012,07,06,12,07,20.00
2012,07,06,12,08,20.10
2012,07,06,12,09,20.20
2012,07,06,12,10,20.20
2012,07,06,12,11,20.10
2012,07,06,12,12,20.00
2012,07,06,12,13,19.90
2012,07,06,12,14,19.90
2012,07,06,12,15,19.90
2012,07,06,12,16,19.90
2012,07,06,12,17,20.00
2012,07,06,12,18,19.90
2012,07,06,12,19,19.90
2012,07,06,12,20,20.00
2012,07,06,12,21,19.90
2012,07,06,12,22,20.00
2012,07,06,12,23,20.00
2012,07,06,12,24,20.10
2012,07,06,12,25,20.10
2012,07,06,12,26,20.20
2012,07,06,12,27,20.30
2012,07,06,12,28,20.30
2012,07,06,12,29,20.30
2012,07,06,12,30,20.30
2012,07,06,12,31,20.40
2012,07,06,12,32,20.40
2012,07,06,12,33,20.40
2012,07,06,12,34,20.40
2012,07,06,12,35,20.40
2012,07,06,12,36,20.30
2012,07,06,12,37,20.30
2012,07,06,12,38,20.20
2012,07,06,12,39,20.20
2012,07,06,12,40,20.20
2012,07,06,12,41,20.10
2012,07,06,12,42,20.00
2012,07,06,12,43,19.90
2012,07,06,12,44,19.80
2012,07,06,12,45,19.90
2012,07,06,12,46,19.90
2012,07,06,12,47,20.00
2012,07,06,12,48,20.10
2012,07,06,12,49,20.20
2012,07,06,12,50,20.20
2012,07,06,12,51,20.30
2012,07,06,12,52,20.20
2012,07,06,12,53,20.30
2012,07,06,12,54,20.30
2012,07,06,12,55,20.30
2012,07,06,12,56,20.20
2012,07,06,12,57,20.10
2012,07,06,12,58,20.10
2012,07,06,12,59,20.10
2012,07,06,13,00,20.00
2012,07,06,13,01,20.00
2012,07,06,13,02,20.00
2012,07,06,13,03,20.10
2012,07,06,13,04,20.20
2012,07,06,13,05,20.30
2012,07,06,13,06,20.30
2012,07,06,13,07,20.30
2012,07,06,13,08,20.30
2012,07,06,13,09,20.30
2012,07,06,13,10,20.40
2012,07,06,13,11,20.40
2012,07,06,13,12,20.50
2012,07,06,13,13,20.60
2012,07,06,13,14,20.60
2012,07,06,13,15,20.70
2012,07,06,13,16,20.80
2012,07,06,13,17,20.80
2012,07,06,13,18,20.90
2012,07,06,13,19,21.00
2012,07,06,13,20,21.00
2012,07,06,13,21,21.10
2012,07,06,13,22,21.10
2012,07,06,13,23,21.20
2012,07,06,13,24,21.20
2012,07,06,13,25,21.00
2012,07,06,13,26,20.90
2012,07,06,13,27,20.80
2012,07,06,13,28,20.80
2012,07,06,13,29,20.70
2012,07,06,13,30,20.60
2012,07,06,13,31,20.50
2012,07,06,13,32,20.40
2012,07,06,13,33,20.40
2012,07,06,13,34,20.40
2012,07,06,13,35,20.50
2012,07,06,13,36,20.50
2012,07,06,13,37,20.60
2012,07,06,13,38,20.60
2012,07,06,13,39,20.70
2012,07,06,13,40,20.70
2012,07,06,13,41,20.70
2012,07,06,13,42,20.70
2012,07,06,13,43,20.80
2012,07,06,13,44,21.00
2012,07,06,13,45,21.10
2012,07,06,13,46,21.10
2012,07,06,13,47,21.10
2012,07,06,13,48,21.10
2012,07,06,13,49,21.10
2012,07,06,13,50,21.00
2012,07,06,13,51,20.90
2012,07,06,13,52,20.80
2012,07,06,13,53,20.80
2012,07,06,13,54,20.80
2012,07,06,13,55,20.70
2012,07,06,13,56,20.60
2012,07,06,13,57,20.60
2012,07,06,13,58,20.60
2012,07,06,13,59,20.60
2012,07,06,14,00,20.60
2012,07,06,14,01,20.70
2012,07,06,14,02,20.70
2012,07,06,14,03,20.70
2012,07,06,14,04,20.80
2012,07,06,14,05,20.80
2012,07,06,14,06,20.80
2012,07,06,14,07,20.80
2012,07,06,14,08,20.80
2012,07,06,14,09,20.80
2012,07,06,14,10,20.70
2012,07,06,14,11,20.70
2012,07,06,14,12,20.70
2012,07,06,14,13,20.80
2012,07,06,14,14,20.80
2012,07,06,14,15,20.90
2012,07,06,14,16,20.90
2012,07,06,14,17,21.00
2012,07,06,14,18,21.10
2012,07,06,14,19,21.10
2012,07,06,14,20,21.20
2012,07,06,14,21,21.30
2012,07,06,14,22,21.40
2012,07,06,14,23,21.40
2012,07,06,14,24,21.30
2012,07,06,14,25,21.20
2012,07,06,14,26,21.20
2012,07,06,14,27,21.20
2012,07,06,14,28,21.30
2012,07,06,14,29,21.30
2012,07,06,14,30,21.40
2012,07,06,14,31,21.50
2012,07,06,14,32,21.60
2012,07,06,14,33,21.70
2012,07,06,14,34,21.70
2012,07,06,14,35,21.70
2012,07,06,14,36,21.60
2012,07,06,14,37,21.50
2012,07,06,14,38,21.50
2012,07,06,14,39,21.40
2012,07,06,14,40,21.50
2012,07,06,14,41,21.60
2012,07,06,14,42,21.60
2012,07,06,14,43,21.60
2012,07,06,14,44,21.60
2012,07,06,14,45,21.60
2012,07,06,14,46,21.70
2012,07,06,14,47,21.80
2012,07,06,14,48,21.80
2012,07,06,14,49,21.80
2012,07,06,14,50,21.80
2012,07,06,14,51,21.80
2012,07,06,14,52,21.80
2012,07,06,14,53,21.70
2012,07,06,14,54,21.70
2012,07,06,14,55,21.70
2012,07,06,14,56,21.70
2012,07,06,14,57,21.80
2012,07,06,14,58,21.80
2012,07,06,14,59,21.80
2012,07,06,15,00,21.90
2012,07,06,15,01,22.00
2012,07,06,15,02,22.00
2012,07,06,15,03,22.00
2012,07,06,15,04,22.10
2012,07,06,15,05,22.10
2012,07,06,15,06,22.10
2012,07,06,15,07,22.20
2012,07,06,15,08,22.20
2012,07,06,15,09,22.20
2012,07,06,15,10,22.20
2012,07,06,15,11,22.10
2012,07,06,15,12,22.10
2012,07,06,15,13,22.20
2012,07,06,15,14,22.20
2012,07,06,15,15,22.20
2012,07,06,15,16,22.20
2012,07,06,15,17,22.20
2012,07,06,15,18,22.30
2012,07,06,15,19,22.30
2012,07,06,15,20,22.40
2012,07,06,15,21,22.30
2012,07,06,15,22,22.20
2012,07,06,15,23,22.10
2012,07,06,15,24,22.10
2012,07,06,15,25,22.20
2012,07,06,15,26,22.20
2012,07,06,15,27,22.30
2012,07,06,15,28,22.30
2012,07,06,15,29,22.30
2012,07,06,15,30,22.30
2012,07,06,15,31,22.30
2012,07,06,15,32,22.30
2012,07,06,15,33,22.30
2012,07,06,15,34,22.30
2012,07,06,15,35,22.30
2012,07,06,15,36,22.30
2012,07,06,15,37,22.30
2012,07,06,15,38,22.30
2012,07,06,15,39,22.30
2012,07,06,15,40,22.30
2012,07,06,15,41,22.40
2012,07,06,15,42,22.40
2012,07,06,15,43,22.40
2012,07,06,15,44,22.40
2012,07,06,15,45,22.40
2012,07,06,15,46,22.40
2012,07,06,15,47,22.50
2012,07,06,15,48,22.50
2012,07,06,15,49,22.40
2012,07,06,15,50,22.40
2012,07,06,15,51,22.40
2012,07,06,15,52,22.50
2012,07,06,15,53,22.60
2012,07,06,15,54,22.70
2012,07,06,15,55,22.70
2012,07,06,15,56,22.70
2012,07,06,15,57,22.80
2012,07,06,15,58,22.80
2012,07,06,15,59,22.80
2012,07,06,16,00,22.90
2012,07,06,16,01,22.90
2012,07,06,16,02,22.90
2012,07,06,16,03,22.90
2012,07,06,16,04,22.90
2012,07,06,16,05,22.90
2012,07,06,16,06,22.80
2012,07,06,16,07,22.90
2012,07,06,16,08,22.90
2012,07,06,16,09,22.90
2012,07,06,16,10,22.90
2012,07,06,16,11,22.90
2012,07,06,16,12,23.00
2012,07,06,16,13,23.10
2012,07,06,16,14,23.10
2012,07,06,16,15,23.20
2012,07,06,16,16,23.30
2012,07,06,16,17,23.30
2012,07,06,16,18,23.30
2012,07,06,16,19,23.30
2012,07,06,16,20,23.30
2012,07,06,16,21,23.30
2012,07,06,16,22,23.30
2012,07,06,16,23,23.40
2012,07,06,16,24,23.40
2012,07,06,16,25,23.40
2012,07,06,16,26,23.40
2012,07,06,16,27,23.40
2012,07,06,16,28,23.40
2012,07,06,16,29,23.30
2012,07,06,16,30,23.30
2012,07,06,16,31,23.30
2012,07,06,16,32,23.30
2012,07,06,16,33,23.30
2012,07,06,16,34,23.30
2012,07,06,16,35,23.30
2012,07,06,16,36,23.40
2012,07,06,16,37,23.40
2012,07,06,16,38,23.40
2012,07,06,16,39,23.40
2012,07,06,16,40,23.30
2012,07,06,16,41,23.30
2012,07,06,16,42,23.30
2012,07,06,16,43,23.30
2012,07,06,16,44,23.20
2012,07,06,16,45,23.20
2012,07,06,16,46,23.20
2012,07,06,16,47,23.20
2012,07,06,16,48,23.20
2012,07,06,16,49,23.20
2012,07,06,16,50,23.20
2012,07,06,16,51,23.20
2012,07,06,16,52,23.20
2012,07,06,16,53,23.20
2012,07,06,16,54,23.20
2012,07,06,16,55,23.20
2012,07,06,16,56,23.20
2012,07,06,16,57,23.30
2012,07,06,16,58,23.30
2012,07,06,16,59,23.30
2012,07,06,17,00,23.30
2012,07,06,17,01,23.30
2012,07,06,17,02,23.30
2012,07,06,17,03,23.20
2012,07,06,17,04,23.20
2012,07,06,17,05,23.20
2012,07,06,17,06,23.20
2012,07,06,17,07,23.10
2012,07,06,17,08,23.10
2012,07,06,17,09,23.10
2012,07,06,17,10,23.10
2012,07,06,17,11,23.10
2012,07,06,17,12,23.20
2012,07,06,17,13,23.20
2012,07,06,17,14,23.20
2012,07,06,17,15,23.10
2012,07,06,17,16,23.10
2012,07,06,17,17,23.10
2012,07,06,17,18,23.20
2012,07,06,17,19,23.20
2012,07,06,17,20,23.20
2012,07,06,17,21,23.20
2012,07,06,17,22,23.20
2012,07,06,17,23,23.20
2012,07,06,17,24,23.30
2012,07,06,17,25,23.30